TimeCST,TemperatureF,Dew PointF,Humidity,Sea Level PressureIn,VisibilityMPH,Wind Direction,Wind SpeedMPH,Gust SpeedMPH,PrecipitationIn,Events,Conditions,WindDirDegrees,DateUTC
12:00 AM,-43,,,30.31,9,Calm,Calm,,,,,,2013-02-16 06:00:00
12:00 AM,-41.8,-9999,N/A,30.31,9.0,Calm,Calm,-,N/A,,Unknown,0,2013-02-16 06:00:00
1:00 AM,-40.0,-9999,N/A,30.30,9.0,NNW,5.8,-,N/A,,Unknown,340,2013-02-16 07:00:00
2:00 AM,-41.8,-9999,N/A,30.31,9.0,NNW,5.8,-,N/A,,Unknown,340,2013-02-16 08:00:00
3:00 AM,-42,,,30.33,9,NNW,4.6,,,,,340,2013-02-16 09:00:00
3:00 AM,-41.8,-9999,N/A,30.33,9.0,NNW,4.6,-,N/A,,Unknown,340,2013-02-16 09:00:00
4:00 AM,-41.8,-9999,N/A,30.33,9.0,NNW,4.6,-,N/A,,Unknown,330,2013-02-16 10:00:00
5:00 AM,-41.8,-9999,N/A,30.33,9.0,NW,3.5,-,N/A,,Unknown,320,2013-02-16 11:00:00
6:00 AM,-42,,,30.33,9,North,3.5,,,,,350,2013-02-16 12:00:00
7:00 AM,-41.8,-9999,N/A,30.33,9.0,NNW,3.5,-,N/A,,Unknown,330,2013-02-16 13:00:00
8:00 AM,-41.8,-9999,N/A,30.32,9.0,WNW,4.6,-,N/A,,Unknown,300,2013-02-16 14:00:00
9:00 AM,-47,,,30.33,9,NNW,2.3,,,,,330,2013-02-16 15:00:00
9:00 AM,-47.2,-9999,N/A,30.33,9.0,Calm,Calm,-,N/A,,Unknown,0,2013-02-16 15:00:00
10:00 AM,-45.4,-9999,N/A,30.33,9.0,Calm,Calm,-,N/A,,Unknown,0,2013-02-16 16:00:00
10:52 AM,-41.8,-9999,N/A,30.30,3.0,WNW,2.3,-,N/A,,Unknown,290,2013-02-16 16:52:00
11:00 AM,-40.0,-9999,N/A,30.34,1.5,West,2.3,-,N/A,,Unknown,280,2013-02-16 17:00:00
11:22 AM,-43.6,-9999,N/A,30.31,3.5,WNW,4.6,-,N/A,,Unknown,300,2013-02-16 17:22:00
11:23 AM,-43.6,-9999,N/A,30.31,3.0,WNW,4.6,-,N/A,,Unknown,300,2013-02-16 17:23:00
11:39 AM,-41.8,-9999,N/A,30.31,9.0,West,2.3,-,N/A,,Unknown,270,2013-02-16 17:39:00
12:00 PM,-43,,,30.35,6,WNW,4.6,,,,,300,2013-02-16 18:00:00
12:00 PM,-43.6,-9999,N/A,30.35,6.0,NW,4.6,-,N/A,,Unknown,310,2013-02-16 18:00:00
1:00 PM,-43.6,-9999,N/A,30.35,9.0,NW,3.5,-,N/A,,Unknown,310,2013-02-16 19:00:00
2:00 PM,-40.0,-9999,N/A,30.36,9.0,West,2.3,-,N/A,,Unknown,260,2013-02-16 20:00:00
2:47 PM,-47.2,-9999,N/A,30.33,9.0,Calm,Calm,-,N/A,,Unknown,0,2013-02-16 20:47:00
3:00 PM,-47,,,30.37,9,SSE,2.3,,,,,160,2013-02-16 21:00:00
3:00 PM,-47.2,-9999,N/A,30.37,9.0,South,2.3,-,N/A,,Unknown,180,2013-02-16 21:00:00
3:10 PM,-45.4,-9999,N/A,30.33,9.0,South,2.3,-,N/A,,Unknown,180,2013-02-16 21:10:00
4:00 PM,-49.0,-9999,N/A,30.38,9.0,South,2.3,-,N/A,,Unknown,170,2013-02-16 22:00:00
4:08 PM,-49.0,-9999,N/A,30.34,9.0,South,3.5,-,N/A,,Unknown,170,2013-02-16 22:08:00
4:56 PM,-45.4,-9999,N/A,30.34,2.5,SW,4.6,-,N/A,,Unknown,230,2013-02-16 22:56:00
5:00 PM,-45.4,-9999,N/A,30.38,2.0,SW,4.6,-,N/A,,Unknown,230,2013-02-16 23:00:00
5:25 PM,-47.2,-9999,N/A,30.35,9.0,South,3.5,-,N/A,,Unknown,190,2013-02-16 23:25:00
6:00 PM,-50,,,30.38,9,South,4.6,,,,,170,2013-02-17 00:00:00
6:00 PM,-50.8,-9999,N/A,30.38,9.0,South,4.6,-,N/A,,Unknown,170,2013-02-17 00:00:00
7:00 PM,-52.6,-9999,N/A,30.39,9.0,SE,5.8,-,N/A,,Unknown,140,2013-02-17 01:00:00
8:00 PM,-52.6,-9999,N/A,30.39,9.0,SE,5.8,-,N/A,,Unknown,140,2013-02-17 02:00:00
9:00 PM,-53,,,30.39,9,SE,6.9,,,,,130,2013-02-17 03:00:00
9:00 PM,-52.6,-9999,N/A,30.39,9.0,SE,6.9,-,N/A,,Unknown,130,2013-02-17 03:00:00
10:00 PM,-54.4,-9999,N/A,30.38,9.0,SE,9.2,-,N/A,,Unknown,130,2013-02-17 04:00:00
11:00 PM,-52.6,-9999,N/A,30.38,9.0,SE,8.1,-,N/A,,Unknown,130,2013-02-17 05:00:00